Weather History for LZKZ - February, 2013

Change the Weather History Date:

Wednesday, February 13, 2013

  Actual Average (LZTT) Record (LZTT)
Temperature  
Mean Temperature 39 °F -  
Max Temperature 44 °F 34 °F 50 °F (1998)
Min Temperature 34 °F 18 °F -9 °F (2012)
Degree Days  
Heating Degree Days 26    
Moisture  
Dew Point 28 °F    
Average Humidity 62    
Maximum Humidity 75    
Minimum Humidity 42    
Precipitation  
Precipitation 0.00 in - - ()
Sea Level Pressure  
Sea Level Pressure 30.01 in    
Wind  
Wind Speed 9 mph ()    
Max Wind Speed 20 mph    
Max Gust Speed -    
Visibility 10.7 miles    
Events Rain    
Averages and records for this station are not official NWS values.
T = Trace of Precipitation, MM = Missing Value Source: Averaged Metar Reports

Daily Weather History Graph

Daily Weather History Graph

Search for Another Location

Airport or City:

Trip Planner

Search our weather history database for the weather conditions in past years. The results will help you decide how hot, cold, wet, or windy it might be!

Date:

Astronomy

Feb. 13, 2013 Rise Set
Actual Time 6:46 AM CET 4:53 PM CET
Civil Twilight 6:13 AM CET 5:25 PM CET
Nautical Twilight 5:36 AM CET 6:02 PM CET
Astronomical Twilight 5:00 AM CET 6:38 PM CET
Moon 7:44 AM CET (2/13) 9:01 PM CET (2/13)
Length of Visible Light 11h 12m
Length of Day
10h 06m
Waxing Crescent, 12% of the Moon is Illuminated
Feb 13
Waxing Crescent
Feb 17
First Quarter
Feb 25
Full
Mar 4
Last Quarter
Mar 11
New

Hourly Weather History & Observations

Time (CET) Temp. Windchill Dew Point Humidity Pressure Visibility Wind Dir Wind Speed Gust Speed Precip Events Conditions
12:00 AM 36 °F - 24 °F 50% 29.98 in 12 mi North 6.7 mph - -   Overcast
12:00 AM 35.6 °F 29.2 °F 24.8 °F 65% 29.92 in - North 8.1 mph - N/A   Clear
12:30 AM 35.6 °F 29.9 °F 26.6 °F 70% 29.95 in - North 6.9 mph - N/A   Clear
1:00 AM 35 °F - 26 °F 58% 29.99 in 12 mi North 6.7 mph - -   Overcast
1:00 AM 35.6 °F 29.2 °F 24.8 °F 65% 29.95 in 6.2 mi North 8.1 mph - N/A   Overcast
1:30 AM 35.6 °F 28.6 °F 24.8 °F 65% 29.95 in 6.2 mi North 9.2 mph - N/A   Overcast
2:00 AM 35 °F - 26 °F 61% 29.99 in 12 mi North 4.5 mph - -   Overcast
2:00 AM 33.8 °F 26.4 °F 26.6 °F 75% 29.95 in - North 9.2 mph - N/A   Clear
2:30 AM 35.6 °F 28.6 °F 26.6 °F 70% 29.95 in - North 9.2 mph - N/A   Clear
3:00 AM 35 °F - 27 °F 61% 29.99 in 12 mi North 4.5 mph - -   Overcast
3:00 AM 35.6 °F 29.2 °F 26.6 °F 70% 29.95 in - North 8.1 mph - N/A   Clear
3:30 AM 33.8 °F 27.0 °F 26.6 °F 75% 29.95 in 6.2 mi NNE 8.1 mph - N/A   Overcast
4:00 AM 35 °F - 26 °F 61% 30.00 in 12 mi NNE 6.7 mph - -   Overcast
4:00 AM 35.6 °F 29.2 °F 26.6 °F 70% 29.95 in 6.2 mi North 8.1 mph - N/A   Overcast
4:30 AM 35.6 °F 27.5 °F 26.6 °F 70% 29.95 in 6.2 mi North 11.5 mph - N/A   Overcast
5:00 AM 35 °F - 27 °F 62% 30.00 in 9 mi North 8.9 mph - -   Overcast
5:00 AM 35.6 °F 28.6 °F 26.6 °F 70% 29.95 in 6.2 mi North 9.2 mph - N/A   Overcast
5:30 AM 35.6 °F 29.2 °F 26.6 °F 70% 29.95 in - North 8.1 mph - N/A   Clear
6:00 AM 35 °F - 26 °F 61% 30.01 in 9 mi North 8.9 mph - -   Overcast
6:00 AM 35.6 °F 28.0 °F 26.6 °F 70% 29.95 in - North 10.4 mph - N/A   Clear
6:30 AM 35.6 °F 30.7 °F 26.6 °F 70% 29.98 in - North 5.8 mph - N/A   Clear
7:00 AM 36 °F - 28 °F 61% 30.02 in 12 mi North 4.5 mph - -   Overcast
7:00 AM 35.6 °F 29.2 °F 26.6 °F 70% 29.98 in 6.2 mi North 8.1 mph - N/A   Overcast
7:30 AM 35.6 °F 30.7 °F 28.4 °F 75% 29.98 in 6.2 mi North 5.8 mph - N/A   Overcast
8:00 AM 36 °F - 28 °F 63% 30.03 in 12 mi North 6.7 mph - -   Overcast
8:00 AM 35.6 °F 28.6 °F 28.4 °F 75% 29.98 in 6.2 mi North 9.2 mph - N/A   Overcast
8:30 AM 35.6 °F 28.6 °F 28.4 °F 75% 30.01 in 6.2 mi North 9.2 mph - N/A   Overcast
9:00 AM 37 °F - 29 °F 63% 30.04 in 12 mi North 6.7 mph - - Rain Light Rain
9:00 AM 37.4 °F 30.3 °F 28.4 °F 70% 30.01 in 6.2 mi North 10.4 mph - N/A Rain Light Rain
9:30 AM 37.4 °F 31.4 °F 28.4 °F 70% 30.01 in 6.2 mi North 8.1 mph - N/A   Overcast
10:00 AM 38 °F - 29 °F 62% 30.04 in 12 mi North 6.7 mph - - Rain Light Rain
10:00 AM 37.4 °F 30.8 °F 30.2 °F 75% 30.01 in 6.2 mi North 9.2 mph - N/A   Overcast
10:30 AM 37.4 °F 30.8 °F 30.2 °F 75% 30.01 in - NNE 9.2 mph - N/A   Clear
11:00 AM 40 °F - 30 °F 57% 30.05 in 12 mi North 6.7 mph - -   Overcast
11:00 AM 41.0 °F 34.3 °F 30.2 °F 65% 30.01 in - North 11.5 mph - N/A   Clear
11:30 AM 42.8 °F 37.0 °F 28.4 °F 57% 30.01 in - North 10.4 mph - N/A   Clear
12:00 PM 43 °F - 28 °F 42% 30.04 in 19 mi North 8.9 mph - -   Overcast
12:00 PM 42.8 °F 37.5 °F 28.4 °F 57% 30.01 in - North 9.2 mph - N/A   Clear
12:30 PM 42.8 °F 37.0 °F 28.4 °F 57% 30.01 in - NNE 10.4 mph - N/A   Clear
1:00 PM 43 °F - 28 °F 43% 30.04 in 19 mi NNE 11.2 mph - -   Overcast
1:00 PM 42.8 °F 36.2 °F 26.6 °F 53% 30.01 in - NNE 12.7 mph - N/A   Clear
1:30 PM 41.0 °F 34.7 °F 30.2 °F 65% 30.01 in - NNE 10.4 mph - N/A   Clear
2:00 PM 41 °F - 30 °F 53% 30.04 in 12 mi NNE 11.2 mph - -   Overcast
2:00 PM 41.0 °F 33.9 °F 30.2 °F 65% 30.01 in - NNE 12.7 mph - N/A   Clear
2:30 PM 41.0 °F 33.5 °F 30.2 °F 65% 30.01 in - NNE 13.8 mph - N/A   Clear
3:00 PM 42 °F - 31 °F 53% 30.03 in 12 mi NNE 8.9 mph - -   Overcast
3:00 PM 41.0 °F 33.9 °F 30.2 °F 65% 30.01 in - NNE 12.7 mph - N/A   Clear
3:30 PM 42.8 °F 36.6 °F 30.2 °F 61% 30.01 in - North 11.5 mph - N/A   Clear
4:00 PM 43 °F - 30 °F 48% 30.03 in 12 mi North 8.9 mph - -   Mostly Cloudy
4:00 PM 42.8 °F 37.0 °F 30.2 °F 61% 30.01 in - North 10.4 mph - N/A   Clear
4:30 PM 42.8 °F 39.3 °F 30.2 °F 61% 30.01 in - North 5.8 mph - N/A   Clear
5:00 PM 42 °F - 29 °F 50% 30.03 in 12 mi North 8.9 mph - -   Mostly Cloudy
5:00 PM 42.8 °F 36.6 °F 30.2 °F 61% 30.01 in - North 11.5 mph - N/A   Clear
5:30 PM 41.0 °F 35.8 °F 28.4 °F 61% 30.01 in - NNE 8.1 mph - N/A   Clear
6:00 PM 42 °F - 27 °F 43% 30.05 in 12 mi North 6.7 mph - -   Mostly Cloudy
6:00 PM 42.8 °F 41.1 °F 26.6 °F 53% 30.01 in - ENE 3.5 mph - N/A   Clear
6:30 PM 42.8 °F 35.8 °F 26.6 °F 53% 30.01 in - North 13.8 mph - N/A   Clear
7:00 PM 43 °F - 28 °F 44% 30.05 in 19 mi North 15.7 mph - -   Mostly Cloudy
7:00 PM 42.8 °F 35.1 °F 28.4 °F 57% 30.01 in - North 16.1 mph - N/A   Clear
7:30 PM 42.8 °F 35.4 °F 28.4 °F 57% 30.01 in - NNE 15.0 mph - N/A   Clear
8:00 PM 42 °F - 28 °F 45% 30.06 in 19 mi North 13.4 mph - -   Mostly Cloudy
8:00 PM 42.8 °F 35.1 °F 28.4 °F 57% 30.04 in - North 16.1 mph - N/A   Clear
8:30 PM 41.0 °F 32.2 °F 28.4 °F 61% 30.04 in - North 18.4 mph - N/A   Clear
9:00 PM 40 °F - 29 °F 54% 30.08 in 19 mi North 15.7 mph - -   Mostly Cloudy
9:00 PM 39.2 °F 29.8 °F 30.2 °F 70% 30.04 in - North 18.4 mph - N/A   Clear
9:30 PM 39.2 °F 29.6 °F 28.4 °F 65% 30.04 in - North 19.6 mph - N/A   Clear
10:00 PM 37 °F - 29 °F 63% 30.09 in 12 mi NNE 15.7 mph - -   Partly Cloudy
10:00 PM 37.4 °F 28.2 °F 28.4 °F 70% 30.04 in - NNE 16.1 mph - N/A   Clear
10:30 PM 37.4 °F 27.5 °F 28.4 °F 70% 30.04 in - NNE 18.4 mph - N/A   Clear
11:00 PM 36 °F - 28 °F 65% 30.10 in 9 mi NNE 20.1 mph - -   Partly Cloudy
11:00 PM 35.6 °F 24.8 °F 28.4 °F 75% 30.06 in - NNE 19.6 mph - N/A   Clear
11:30 PM 35.6 °F 24.8 °F 28.4 °F 75% 30.06 in - NNE 19.6 mph - N/A   Clear